Theta_e
341 335 334 334 334 334 334 333 333 333 332 331 328 327 326 327 336 335 335 327 328 325 321 321 319 319 320 321 323 325 326 326 325 325 326 325 326 329 332 337 338 334 327
336 337 334 336 335 334 334 334 333 332 332 331 329 328 328 326 332 332 331 324 327 325 322 320 320 320 320 319 319 320 320 321 323 331 332 332 325 323 324 326 330 338 338
340 335 335 337 336 334 334 333 332 331 332 331 330 328 327 325 328 332 326 332 333 328 326 325 321 320 320 319 319 319 320 321 326 333 334 333 332 326 323 323 323 325 334
339 337 334 337 336 334 334 333 332 331 332 331 329 327 326 325 327 326 325 330 330 326 315 317 322 320 318 318 317 316 317 319 327 332 332 331 330 326 322 319 321 322 323
338 340 337 336 338 333 333 333 331 330 333 330 327 325 324 323 323 320 325 327 326 317 312 312 320 319 317 316 314 313 312 314 328 330 325 329 332 332 325 320 317 320 322
337 339 337 335 337 336 333 331 329 329 333 330 327 327 325 326 322 323 329 326 321 316 313 310 313 315 313 313 312 309 309 313 326 328 329 327 329 331 328 320 317 314 311
330 337 334 333 333 335 334 331 330 331 333 331 329 329 330 329 325 325 325 321 321 322 318 311 310 310 310 310 308 306 305 308 316 322 324 323 316 322 314 314 314 312 311
326 334 329 332 332 336 336 335 334 335 334 333 331 330 330 331 329 328 327 326 326 326 325 320 315 308 307 306 304 303 303 306 309 313 311 311 310 310 310 309 309 308 308
320 326 329 331 332 333 335 335 335 335 335 334 334 333 331 330 331 330 328 329 329 328 326 325 322 318 308 305 303 303 304 306 307 308 309 308 308 307 307 307 306 306 307
318 320 321 323 326 328 332 333 334 334 334 334 334 333 330 330 330 330 329 330 329 327 325 323 323 324 322 308 304 302 304 305 306 306 306 306 306 306 307 307 307 307 307
318 318 319 320 321 322 326 332 331 333 334 334 333 332 330 329 332 331 331 328 327 326 326 325 324 323 322 321 310 303 302 304 305 305 305 305 305 306 306 307 307 307 307
315 315 316 318 319 320 323 327 334 331 331 331 332 332 332 331 335 333 331 329 327 326 325 324 323 323 322 321 321 317 305 303 303 304 304 305 305 306 306 306 306 307 307
312 313 313 313 315 318 320 323 330 330 331 333 334 335 335 334 333 331 330 328 327 326 325 324 323 322 322 322 322 321 321 315 304 302 303 304 304 305 306 306 306 306 307
311 312 312 312 312 312 316 319 327 329 330 331 332 332 333 333 332 332 330 329 326 327 325 324 323 322 321 321 321 321 321 320 320 314 305 302 302 303 304 305 305 306 311
312 312 312 312 312 312 313 321 328 328 328 330 330 332 332 331 331 329 328 328 328 328 326 325 323 322 322 321 321 320 320 319 318 319 318 314 308 304 302 302 303 304 304
312 312 312 312 312 312 312 315 323 330 329 330 330 329 329 328 328 327 326 324 325 325 327 325 325 325 324 322 321 321 320 319 319 319 318 318 317 316 313 306 302 302 303
311 312 312 312 312 312 313 320 328 328 329 327 327 323 323 323 324 324 323 323 323 324 327 324 324 323 323 322 323 321 321 320 319 318 317 316 316 315 315 315 311 305 301
311 312 312 312 312 313 317 323 326 326 326 325 325 324 324 323 323 322 322 323 323 323 324 323 323 322 322 321 321 320 319 319 318 317 317 316 314 313 311 311 311 310 307
311 311 313 314 315 316 324 325 326 325 324 324 324 324 324 322 322 321 321 321 321 320 319 319 319 319 318 317 316 314 313 313 313 313 312 310 308 306 305 305 305 305 305
311 312 314 316 319 322 323 323 324 324 323 323 323 322 321 320 320 319 318 318 317 317 316 315 315 315 314 313 309 308 309 309 308 308 308 307 306 306 305 304 303 304 305
312 313 317 320 321 321 321 322 322 322 322 323 321 319 318 318 316 317 316 314 310 309 308 307 307 305 304 303 303 307 309 308 305 304 304 304 303 302 296 294 295 294 295
311 314 318 319 319 320 321 321 321 320 321 320 319 317 312 313 312 310 307 305 303 302 302 301 300 300 299 299 298 304 307 305 302 302 302 300 298 294 293 293 293 292 292
312 315 317 318 318 319 319 319 321 320 318 317 313 310 308 305 304 303 302 301 300 299 298 297 297 296 296 296 296 295 297 299 294 301 297 296 293 292 291 291 291 291 291
312 314 316 316 316 316 319 319 319 317 314 310 307 304 303 302 300 299 298 298 297 297 296 296 295 295 294 294 293 292 291 291 293 292 291 291 289 289 289 289 289 289 289
312 314 314 315 316 318 318 318 316 314 307 304 303 302 300 299 298 298 297 296 296 295 295 294 293 292 292 291 291 290 290 289 288 287 287 288 288 288 287 288 287 287 287
311 315 315 316 317 317 317 316 311 305 303 303 301 300 298 298 297 297 296 295 295 294 293 292 292 291 290 289 288 288 287 287 286 286 285 286 286 286 287 286 287 286 286
Wind_Speed
9 8 11 10 11 12 12 12 11 11 10 10 10 10 10 11 11 9 11 15 16 13 13 12 11 10 10 9 9 8 8 9 10 12 13 11 9 8 9 10 13 12 8
9 8 10 11 11 11 11 11 10 9 8 9 9 9 9 10 8 8 11 13 15 14 13 12 10 10 10 9 9 8 8 9 12 16 14 13 11 9 8 7 7 9 11
8 8 11 10 11 11 11 10 8 7 7 8 8 8 8 8 8 8 10 11 12 13 11 9 8 8 8 8 8 8 9 10 13 17 11 10 9 9 8 6 5 5 5
8 6 10 10 10 10 10 10 8 7 6 6 6 7 7 7 7 6 8 7 10 12 12 8 6 6 6 6 6 6 7 8 10 11 7 3 7 9 8 7 5 4 3
11 3 6 8 9 8 8 7 6 4 5 5 5 5 6 5 5 6 5 6 9 11 14 13 6 6 6 6 6 5 5 7 9 10 7 2 7 9 9 10 10 6 5
12 9 8 8 8 8 7 7 5 3 3 3 4 4 5 5 5 6 3 6 8 11 12 11 8 7 7 7 5 5 5 7 7 7 6 2 2 4 7 6 6 6 6
10 9 9 10 10 9 8 6 5 4 3 1 2 3 4 4 4 4 3 6 8 10 11 12 10 9 8 8 7 6 5 4 4 6 4 2 2 3 6 7 7 6 6
7 10 8 11 11 10 8 6 4 3 3 1 1 2 1 1 2 4 5 6 7 8 9 11 12 11 10 9 7 6 6 3 3 4 2 3 2 4 5 6 7 8 8
8 10 6 10 12 12 11 10 8 7 5 5 3 2 1 2 2 4 4 4 6 8 8 9 11 12 12 10 8 6 4 3 3 1 4 5 4 5 6 6 7 7 7
5 6 8 9 11 15 15 14 13 13 10 9 7 5 5 4 5 5 4 4 8 9 13 11 12 11 11 10 7 5 4 3 3 4 4 5 5 6 6 6 6 7 8
7 8 9 10 11 11 14 15 16 16 14 12 9 8 8 7 5 6 1 6 10 8 8 10 13 11 10 9 8 6 4 4 4 4 5 5 5 6 7 7 7 7 7
6 8 10 11 12 11 12 14 12 11 13 11 11 11 8 6 6 4 2 6 9 10 11 9 10 12 14 12 11 10 8 7 6 6 6 7 7 7 6 6 7 7 7
7 8 9 10 12 13 13 11 8 10 11 9 9 8 8 8 7 6 6 9 12 12 10 9 10 11 13 15 16 14 12 11 11 10 9 9 9 10 10 9 8 8 7
7 8 7 7 6 7 10 11 8 8 11 14 11 11 7 6 6 5 5 5 11 10 10 9 11 11 10 10 14 17 16 14 13 13 11 11 10 11 11 12 12 10 9
8 9 8 8 7 6 9 11 12 12 13 14 14 9 9 6 6 4 4 6 8 8 9 10 9 10 12 12 14 11 12 14 15 14 12 10 11 11 11 11 11 12 13
7 6 6 7 9 12 13 14 14 16 13 11 10 10 9 8 8 7 8 11 11 11 9 9 11 9 9 10 10 10 11 12 12 11 11 10 10 11 12 12 13 12 12
4 4 4 6 9 11 13 15 14 14 15 12 11 9 9 8 8 5 7 8 10 11 9 10 11 10 11 11 11 10 13 12 11 11 12 12 13 14 14 13 14 14 14
4 5 5 6 7 10 13 14 16 16 13 11 8 7 9 6 5 3 4 6 6 6 5 4 4 7 8 9 9 10 10 9 10 10 12 13 13 14 14 14 13 13 14
6 7 6 6 8 12 16 17 17 15 13 12 9 8 8 8 6 6 4 1 1 1 1 3 4 6 7 7 8 8 8 8 9 10 11 9 8 8 9 11 11 11 11
8 7 7 10 12 16 15 16 16 15 13 12 10 11 9 8 6 4 2 3 1 3 3 3 4 4 6 7 7 6 5 9 5 5 8 6 8 10 13 15 17 16 16
10 9 11 14 16 16 17 16 16 15 14 12 14 10 8 6 6 5 4 4 4 4 4 4 6 6 6 9 8 5 3 6 7 9 6 9 11 12 16 17 16 20 18
11 12 14 17 19 20 19 17 16 16 16 15 13 11 11 10 10 8 7 7 7 8 8 8 8 10 12 13 12 5 2 1 9 8 9 12 14 16 20 22 18 23 19
16 17 18 19 19 19 17 17 16 17 17 16 16 16 15 12 11 9 8 7 7 7 8 9 10 11 12 12 13 8 2 2 12 5 12 18 21 23 26 25 26 24 24
20 21 22 23 20 18 16 16 17 17 19 20 19 18 16 13 9 7 6 6 6 7 7 8 9 10 10 10 9 10 9 7 6 11 12 21 25 27 28 30 28 30 27
21 23 24 23 22 21 21 20 18 19 20 20 18 15 13 11 8 5 4 4 6 6 8 9 9 11 12 12 12 10 8 7 8 15 23 30 29 29 30 28 31 32 33
26 26 24 24 23 23 21 19 18 19 19 18 16 14 11 7 5 4 3 3 6 7 9 10 12 13 13 13 13 13 12 12 12 15 21 28 31 33 31 33 27 31 29
Wind_Direction
181 162 156 149 139 133 126 119 114 108 100 93 86 78 71 71 70 56 39 30 31 51 53 53 59 63 62 63 66 66 65 59 53 46 43 38 45 52 51 51 52 56 57
197 174 163 155 145 140 136 129 120 104 95 84 77 71 69 70 63 47 31 29 47 56 51 42 46 55 61 61 61 61 63 64 64 61 43 25 28 35 39 45 51 59 56
184 160 164 159 151 148 145 136 123 106 96 84 76 69 66 66 65 54 31 41 36 36 30 30 35 44 48 51 52 54 59 65 81 73 47 25 360 22 26 31 35 44 50
172 171 169 163 158 156 154 149 141 130 116 97 85 77 71 68 74 47 45 39 13 17 23 27 30 29 31 32 34 46 59 73 80 82 78 42 5 16 21 19 21 25 28
155 172 163 169 159 164 165 160 153 133 116 87 73 66 68 65 60 44 52 16 15 26 22 26 28 21 20 21 23 29 53 79 84 54 40 52 27 38 33 35 49 41 27
137 177 198 189 170 168 169 173 175 170 158 116 89 71 60 70 67 65 54 9 20 19 21 22 27 20 16 17 25 45 70 96 87 108 53 344 328 36 26 17 18 25 28
147 192 199 195 192 188 193 194 203 201 191 156 62 40 56 54 49 66 30 11 16 21 21 28 28 25 22 23 30 46 72 96 103 111 189 318 346 318 340 341 343 351 357
166 177 197 199 204 199 204 212 217 226 225 243 3 16 37 40 48 34 6 9 11 5 8 18 26 26 25 27 36 52 77 98 72 89 293 22 351 340 339 336 337 337 338
162 176 176 192 211 219 218 212 210 217 235 257 261 287 325 286 297 329 344 353 354 350 351 4 10 17 23 27 37 52 59 45 72 142 8 5 351 346 343 342 342 341 338
182 199 209 210 211 218 219 226 222 222 230 230 246 259 284 291 282 283 306 351 352 353 350 358 10 15 19 23 22 20 27 13 20 335 359 345 340 336 335 336 339 340 338
208 209 213 216 222 222 218 221 227 227 228 239 250 265 278 282 277 267 311 19 20 1 359 1 3 2 12 12 9 3 358 338 343 335 341 340 338 332 330 332 333 335 334
233 236 234 233 231 229 223 226 225 227 228 244 257 262 266 251 230 256 281 338 339 338 345 350 356 356 359 5 8 4 347 329 321 321 326 325 325 326 327 326 328 331 334
250 250 244 245 241 235 232 222 219 219 214 208 236 246 241 234 225 254 286 311 306 309 325 336 341 341 347 354 358 356 356 353 341 328 326 325 324 320 318 320 323 321 322
243 262 265 251 239 238 232 230 197 184 194 207 216 229 212 207 231 253 279 286 295 293 299 316 331 330 324 338 344 347 349 352 352 341 339 335 326 322 322 319 315 313 322
239 243 242 237 228 205 185 196 186 191 196 206 205 210 219 224 223 231 270 290 286 272 282 295 317 324 328 328 322 335 337 336 339 336 335 334 328 323 318 312 310 309 308
255 257 245 230 220 214 201 204 197 185 193 205 209 222 230 236 255 285 300 298 283 290 261 304 308 311 305 310 315 311 321 322 332 332 323 323 325 327 322 311 302 296 296
251 247 234 214 212 208 200 196 180 180 192 191 200 217 226 238 232 242 261 275 284 285 281 300 304 296 312 317 312 304 315 312 310 315 312 319 324 322 317 316 310 300 291
232 223 215 210 191 189 185 177 173 174 178 181 199 188 173 167 162 216 265 258 265 283 273 309 318 309 307 305 310 316 325 321 319 306 304 306 312 318 319 316 311 306 302
219 217 195 168 150 155 158 160 163 170 173 175 178 194 165 159 161 167 181 196 188 151 358 287 288 287 300 313 321 323 329 312 306 302 305 322 330 329 339 339 337 326 317
211 198 169 152 145 148 155 164 168 170 175 181 189 166 158 154 154 154 203 216 215 291 285 273 276 315 330 337 350 15 336 344 336 345 330 325 331 345 347 344 340 336 327
199 173 156 148 147 153 163 169 168 169 171 179 164 158 165 170 159 161 165 146 113 97 69 43 23 15 10 12 28 88 43 359 13 0 334 336 346 351 354 353 354 354 351
194 167 157 154 156 161 167 171 173 172 171 170 164 156 146 146 139 135 122 104 86 64 60 48 29 16 10 7 21 70 89 309 23 351 336 329 335 337 339 344 345 348 347
187 171 165 166 169 170 173 179 183 178 172 167 155 150 142 135 126 116 97 79 66 48 33 27 21 12 15 13 12 25 27 346 335 265 312 320 327 330 332 338 340 343 341
188 177 174 176 176 182 184 182 184 183 174 160 152 149 143 136 123 104 80 61 41 25 17 12 9 5 5 17 19 26 21 349 333 309 309 318 323 333 336 339 340 338 340
189 187 183 184 181 181 180 185 187 180 169 157 153 153 147 138 126 107 77 42 29 24 18 16 14 11 10 8 14 14 9 357 330 323 322 326 325 333 337 336 342 343 341
187 188 187 184 182 182 183 182 180 176 169 168 167 163 154 147 139 122 86 36 23 18 15 12 9 6 7 6 8 3 359 355 343 333 324 328 329 333 339 344 341 342 336